カタログに戻る

AMAZONAS NEXUS

運用中通信GEO
NORAD 55508·PAYLOAD·🇧🇷 Brazil

打ち上げ Feb 7, 2023 から Cape Canaveral Space Force Station

Loading…

TLE

最新Source: Space-Track

元期: Sep 14, 2026, 10:05 UTC

1 55508U 23017A   26257.42051113 -.00000291  00000-0  00000-0 0  9998
2 55508   0.0443  30.3796 0002763 100.5682 312.8438  1.00270932  7936

AllMySatでAMAZONAS NEXUSをリアルタイム追跡

Download on the App Store